Regional Weather Roundup
Issued by NWS

Home | Current Version | Previous Version | Graphics & Text | Print | Product List | Glossary On
Versions: 1 2 3 4 5 6 7 8 9 10 11 12 13 14 15 16 17 18 19 20 21 22 23 24 25 26 27 28 29 30 31 32 33 34 35 36 37 38 39 40 41 42 43 44 45 46 47 48 49 50
000
ASUS45 KABQ 190701
RWRNM
WEATHER ROUNDUP FOR NEW MEXICO
NATIONAL WEATHER SERVICE ALBUQUERQUE NM
100 AM MDT FRI SEP 19 2014

NOTE: "FAIR" MEANS FEW OR NO CLOUDS BELOW 12,000 FEET AGL WITH NO
       SIGNIFICANT WEATHER OR OBSTRUCTIONS TO VISION.

      THIS PRODUCT IS RELEASED AS TWO VERSIONS.  ONE VERSION NEAR
      THE TOP OF THE HOUR CONTAINING PRELIMINARY DATA FROM ALBUQUERQUE
      AND OTHER STATIONS.  A FINAL VERSION WITH ADDITIONAL DATA IS
      ISSUED ABOUT 10 MINUTES AFTER THE HOUR.

NMZ501-503-504-510>518-190800-
NORTHWEST PLATEAU/NORTHCENTRAL MOUNTAINS

CITY           SKY/WX    TMP DP  RH WIND       PRES   REMARKS
FARMINGTON     CLEAR     64  42  44 E8        30.02R
LOS ALAMOS     CLEAR     60  53  77 S8        30.20S
SANTA FE       CLOUDY    62  55  77 S6        30.14S
TAOS           CLEAR     55  43  62 SW3       30.19S
ANGEL FIRE     FAIR      37  33  85 CALM      30.28F

$$
NMZ402-403-502-505>509-190800-
WESTCENTRAL MOUNTAINS/SOUTHWEST MOUNTAINS

CITY           SKY/WX    TMP DP  RH WIND       PRES   REMARKS
GALLUP         CLEAR     53  44  71 CALM      30.11F
GRANTS         PTCLDY    50  43  76 CALM      30.15S
SILVER CITY    FOG       63  63 100 CALM      30.08S VSB 1

$$
NMZ407-409-411-412-190800-
SOUTHERN DESERTS

CITY           SKY/WX    TMP DP  RH WIND       PRES   REMARKS
LORDSBURG      CLOUDY    63  63 100 MISG      30.00F
DEMING         CLOUDY    64  64 100 CALM      30.00F
LAS CRUCES     CLOUDY    64  63  97 CALM      30.01F
HOLLOMAN AFB   HVY RAIN  64  64 100 CALM      29.99S FOG
ALAMOGORDO     CLOUDY    64  64 100 N6        30.00F
T OR C         FOG       63  63 100 CALM      30.02S VSB 1

$$
NMZ519>523-190800-
CENTRAL VALLEYS/CENTRAL HIGHLANDS

CITY           SKY/WX    TMP DP  RH WIND       PRES   REMARKS
ALBUQUERQUE    MOCLDY    67  58  72 CALM      30.08F
DOUBLE EAGLE   CLOUDY    59  56  90 CALM      30.12S
CLINES CORNERS CLOUDY    58  55  90 E6        30.17F
BELEN          FAIR      63  58  84 CALM      30.06F
SOCORRO        MOCLDY    63  60  90 SW5       30.04F

$$
NMZ524>526-539-540-190800-
SOUTHCENTRAL MOUNTAINS

CITY           SKY/WX    TMP DP  RH WIND       PRES   REMARKS
RUIDOSO        NOT AVBL

$$
NMZ527>531-190800-
NORTHEAST HIGHLANDS/NORTHEAST PLAINS

CITY           SKY/WX    TMP DP  RH WIND       PRES   REMARKS
LAS VEGAS      CLOUDY    57  55  93 SW3       30.18F
RATON          CLOUDY    60  57  89 SW6       30.14F
CLAYTON        CLOUDY    63  60  90 S12       30.09S

$$
NMZ532>537-190800-
EASTCENTRAL PLAINS

CITY           SKY/WX    TMP DP  RH WIND       PRES   REMARKS
TUCUMCARI      CLOUDY    67  62  84 SE3       30.04S
CANNON AFB     CLOUDY    64  63  94 E7        30.06F
CLOVIS AIRPORT   N/A     64  61  88 SE6       30.08F

$$
NMZ028-029-538-190800-
SOUTHEAST PLAINS

CITY           SKY/WX    TMP DP  RH WIND       PRES   REMARKS
ROSWELL        LGT RAIN  67  65  93 E8        29.99F
CARLSBAD       HVY RAIN  70 N/A N/A E9        29.93F
HOBBS          LGT RAIN  66  66 100 E12       30.01F


$$



USA.gov is the U.S. government's official web portal to all federal, state and local government web resources and services.